GLOBALSTAR M076 [+]

Last updated on Fri Dec 29 2023 00:02:56 GMT+0000 (Coordinated Universal Time)

1 37190U 10054C 23362.12921354 -.00000098 00000+0 33109-4 0 9990 2 37190 52.0052 334.2075 0000320 306.2639 134.4761 12.62257070609311

Satellite not in orbit

GLOBALSTAR M076 [+]